Belen, NM

9:18 AM MDT on April 20, 2018 (GMT -0600)
Belen

Weather History for KE80 - November, 2012

Change the Weather History Date:

Thursday, November 15, 2012

  Actual Average (KABQ) Record (KABQ)
Temperature  
Mean Temperature 43 °F -  
Max Temperature 61 °F 56 °F 73 °F (1903)
Min Temperature 25 °F 30 °F 10 °F (1915)
Degree Days  
Heating Degree Days 22    
Moisture  
Dew Point 11 °F    
Average Humidity 31    
Maximum Humidity 50    
Minimum Humidity 15    
Precipitation  
Precipitation 0.00 in - - ()
Sea Level Pressure  
Sea Level Pressure 30.29 in    
Wind  
Wind Speed 4 mph (NW)    
Max Wind Speed 9 mph    
Max Gust Speed -    
Visibility 10 miles    
Events      
Averages and records for this station are not official NWS values.
T = Trace of Precipitation, MM = Missing Value Source: NWS Daily Summary

Daily Weather History Graph

Daily Weather History Graph

Search for Another Location

Airport or City:

Astronomy

Nov. 15, 2012 Rise Set
Actual Time 6:41 AM MST 5:02 PM MST
Civil Twilight 6:14 AM MST 5:28 PM MST
Nautical Twilight 5:44 AM MST 5:59 PM MST
Astronomical Twilight 5:14 AM MST 6:29 PM MST
Moon 8:37 AM MST (11/15) 6:59 PM MST (11/15)
Length of Visible Light 11h 14m
Length of Day
10h 20m
Waxing Crescent, 5% of the Moon is Illuminated
Nov 15
Waxing Crescent
Nov 20
First Quarter
Nov 28
Full
Dec 6
Last Quarter
Dec 13
New

Hourly Weather History & Observations

Time (MST) Temp. Windchill Dew Point Humidity Pressure Visibility Wind Dir Wind Speed Gust Speed Precip Events Conditions
12:15 AM 29.1 °F 25.4 °F 8.8 °F 43% 30.24 in 10.0 mi North 3.5 mph - N/A   Clear
12:35 AM 29.8 °F 21.5 °F 8.6 °F 41% 30.24 in 10.0 mi NNW 9.2 mph - N/A   Clear
12:55 AM 31.1 °F 23.7 °F 7.7 °F 37% 30.24 in 10.0 mi NW 8.1 mph - N/A   Clear
1:15 AM 29.3 °F 23.2 °F 7.9 °F 41% 30.24 in 10.0 mi NW 5.8 mph - N/A   Clear
1:35 AM 29.7 °F 23.7 °F 6.8 °F 38% 30.24 in 10.0 mi NW 5.8 mph - N/A   Clear
1:55 AM 32.4 °F 27.9 °F 6.8 °F 34% 30.24 in 10.0 mi NNW 4.6 mph - N/A   Clear
2:15 AM 30.6 °F 23.1 °F 7.0 °F 37% 30.25 in 10.0 mi NNW 8.1 mph - N/A   Clear
2:35 AM 27.3 °F 22.0 °F 7.9 °F 44% 30.24 in 10.0 mi NNW 4.6 mph - N/A   Clear
2:55 AM 27.5 °F 23.6 °F 6.8 °F 42% 30.25 in 10.0 mi NW 3.5 mph - N/A   Clear
3:15 AM 27.1 °F 19.7 °F 6.6 °F 42% 30.25 in 10.0 mi NW 6.9 mph - N/A   Clear
3:35 AM 27.0 °F 21.6 °F 6.8 °F 43% 30.24 in 10.0 mi NNW 4.6 mph - N/A   Clear
3:55 AM 27.1 °F 21.8 °F 6.8 °F 42% 30.24 in 10.0 mi WNW 4.6 mph - N/A   Clear
4:15 AM 26.4 °F 19.8 °F 7.0 °F 44% 30.25 in 10.0 mi NW 5.8 mph - N/A   Clear
4:35 AM 28.0 °F 20.8 °F 7.7 °F 42% 30.25 in 10.0 mi NW 6.9 mph - N/A   Clear
4:55 AM 27.0 °F 20.5 °F 7.5 °F 44% 30.25 in 10.0 mi NW 5.8 mph - N/A   Clear
5:15 AM 27.3 °F 20.9 °F 7.3 °F 43% 30.26 in 10.0 mi NW 5.8 mph - N/A   Clear
5:35 AM 25.7 °F 20.1 °F 8.6 °F 48% 30.26 in 10.0 mi NNW 4.6 mph - N/A   Clear
5:55 AM 27.0 °F 20.5 °F 8.1 °F 45% 30.27 in 10.0 mi NW 5.8 mph - N/A   Clear
6:15 AM 26.8 °F 19.3 °F 8.2 °F 46% 30.27 in 10.0 mi NW 6.9 mph - N/A   Clear
6:35 AM 26.8 °F 19.3 °F 8.4 °F 46% 30.27 in 10.0 mi NW 6.9 mph - N/A   Clear
6:55 AM 25.2 °F 17.3 °F 8.6 °F 50% 30.29 in 10.0 mi NW 6.9 mph - N/A   Clear
7:15 AM 28.4 °F 22.2 °F 8.6 °F 43% 30.29 in 10.0 mi WNW 5.8 mph - N/A   Clear
7:35 AM 27.7 °F 22.4 °F 8.2 °F 44% 30.30 in 10.0 mi NW 4.6 mph - N/A   Clear
7:55 AM 31.8 °F - 8.4 °F 38% 30.31 in 10.0 mi Calm Calm - N/A   Clear
8:15 AM 34.9 °F - 9.5 °F 35% 30.32 in 10.0 mi Calm Calm - N/A   Clear
8:35 AM 37.6 °F 35.1 °F 9.9 °F 32% 30.32 in 10.0 mi WNW 3.5 mph - N/A   Clear
8:55 AM 39.2 °F - 10.0 °F 30% 30.32 in 10.0 mi Calm Calm - N/A   Clear
9:35 AM 43.3 °F - 11.7 °F 28% 30.32 in 10.0 mi Calm Calm - N/A   Clear
9:55 AM 44.8 °F - 12.0 °F 27% 30.32 in 10.0 mi Calm Calm - N/A   Clear
10:15 AM 46.8 °F - 12.2 °F 25% 30.33 in 10.0 mi Calm Calm - N/A   Clear
10:35 AM 49.1 °F - 12.4 °F 23% 30.33 in 10.0 mi WNW 4.6 mph - N/A   Clear
10:55 AM 50.7 °F - 12.7 °F 22% 30.33 in 10.0 mi Calm Calm - N/A   Clear
11:15 AM 52.0 °F - 12.7 °F 21% 30.32 in 10.0 mi ENE 3.5 mph - N/A   Clear
11:35 AM 54.7 °F - 13.3 °F 19% 30.32 in 10.0 mi East 3.5 mph - N/A   Clear
11:55 AM 53.6 °F - 13.1 °F 20% 30.31 in 10.0 mi NNE 3.5 mph - N/A   Clear
12:15 PM 56.1 °F - 12.7 °F 18% 30.30 in 10.0 mi Calm Calm - N/A   Clear
12:35 PM 56.7 °F - 12.6 °F 18% 30.29 in 10.0 mi North 4.6 mph - N/A   Clear
12:55 PM 57.6 °F - 12.9 °F 17% 30.29 in 10.0 mi Calm Calm - N/A   Clear
1:15 PM 57.9 °F - 12.6 °F 17% 30.28 in 10.0 mi Calm Calm - N/A   Clear
1:35 PM 58.5 °F - 12.6 °F 16% 30.28 in 10.0 mi Calm Calm - N/A   Clear
1:55 PM 60.3 °F - 12.9 °F 16% 30.28 in 10.0 mi East 3.5 mph - N/A   Clear
2:15 PM 60.4 °F - 12.7 °F 15% 30.28 in 10.0 mi Calm Calm - N/A   Clear
2:35 PM 60.6 °F - 12.4 °F 15% 30.28 in 10.0 mi Calm Calm - N/A   Clear
2:55 PM 61.2 °F - 12.9 °F 15% 30.27 in 10.0 mi North 3.5 mph - N/A   Clear
3:15 PM 59.9 °F - 12.4 °F 15% 30.28 in 10.0 mi Calm Calm - N/A   Clear
3:55 PM 59.7 °F - 13.1 °F 16% 30.27 in 10.0 mi NE 4.6 mph - N/A   Clear
4:15 PM 59.0 °F - 12.7 °F 16% 30.26 in 10.0 mi ENE 4.6 mph - N/A   Clear
4:35 PM 56.5 °F - 12.6 °F 18% 30.26 in 10.0 mi NE 4.6 mph - N/A   Clear
4:55 PM 52.9 °F - 14.0 °F 21% 30.27 in 10.0 mi ENE 4.6 mph - N/A   Clear
5:15 PM 52.7 °F - 14.0 °F 22% 30.28 in 10.0 mi NE 4.6 mph - N/A   Clear
5:35 PM 51.6 °F - 14.4 °F 23% 30.28 in 10.0 mi NE 3.5 mph - N/A   Clear
5:55 PM 49.6 °F - 13.8 °F 24% 30.29 in 10.0 mi Calm Calm - N/A   Clear
6:35 PM 46.4 °F - 13.6 °F 27% 30.29 in 10.0 mi Calm Calm - N/A   Clear
6:55 PM 43.5 °F - 10.8 °F 26% 30.29 in 10.0 mi Calm Calm - N/A   Clear
7:15 PM 42.4 °F 40.7 °F 10.6 °F 27% 30.29 in 10.0 mi SE 3.5 mph - N/A   Clear
7:35 PM 41.4 °F 39.4 °F 11.3 °F 29% 30.29 in 10.0 mi South 3.5 mph - N/A   Clear
7:55 PM 41.7 °F 38.0 °F 11.3 °F 29% 30.30 in 10.0 mi WSW 5.8 mph - N/A   Clear
8:15 PM 41.2 °F 37.3 °F 11.3 °F 30% 30.31 in 10.0 mi WSW 5.8 mph - N/A   Clear
8:35 PM 39.7 °F 34.9 °F 11.5 °F 31% 30.31 in 10.0 mi WSW 6.9 mph - N/A   Clear
8:55 PM 39.0 °F 35.7 °F 11.1 °F 32% 30.31 in 10.0 mi SW 4.6 mph - N/A   Clear
9:15 PM 41.7 °F - 10.9 °F 28% 30.31 in 10.0 mi Calm Calm - N/A   Clear
9:35 PM 37.2 °F - 9.7 °F 32% 30.32 in 10.0 mi Calm Calm - N/A   Clear
9:55 PM 36.9 °F 33.1 °F 9.5 °F 32% 30.33 in 10.0 mi WNW 4.6 mph - N/A   Clear
10:15 PM 36.1 °F 32.3 °F 9.5 °F 33% 30.33 in 10.0 mi WSW 4.6 mph - N/A   Clear
10:35 PM 36.1 °F 33.5 °F 9.7 °F 33% 30.33 in 10.0 mi SSW 3.5 mph - N/A   Clear
10:55 PM 42.4 °F 39.6 °F 13.5 °F 31% 30.33 in 10.0 mi South 4.6 mph - N/A   Clear
11:15 PM 40.6 °F 36.7 °F 13.3 °F 33% 30.33 in 10.0 mi West 5.8 mph - N/A   Clear
11:35 PM 42.6 °F 39.0 °F 15.4 °F 33% 30.33 in 10.0 mi West 5.8 mph - N/A   Clear
11:55 PM 45.0 °F 42.6 °F 16.0 °F 31% 30.34 in 10.0 mi ENE 4.6 mph - N/A   Clear